Temperature
18 18 18 18 18 18 19 19 19 19 19 19 19 19 19 19 19 19 19 19 19 19 19 19 19 19 19 19 19 19 19 19 18 19 18 18 18 18 18 18 18 18 18
19 18 18 18 18 18 18 18 18 18 18 18 18 18 18 18 18 18 18 18 18 19 19 19 19 19 19 19 19 19 18 18 18 18 18 18 18 18 18 18 18 18 18
19 18 18 18 18 18 18 18 18 18 18 18 18 18 18 18 18 18 18 18 18 18 18 18 18 18 18 18 18 18 18 18 18 18 18 18 18 18 18 18 18 18 18
18 18 18 18 18 18 18 18 18 18 18 18 18 18 18 18 18 18 18 18 18 18 18 18 18 18 18 18 18 18 18 18 18 18 18 18 18 18 18 18 18 18 18
18 18 18 18 18 18 18 18 18 18 17 17 17 17 17 17 17 17 17 17 17 18 18 18 18 18 18 18 18 18 18 18 18 18 18 18 18 18 18 18 18 18 18
18 18 18 18 18 18 17 17 17 17 17 17 17 17 17 17 17 17 17 17 17 17 17 17 17 18 18 18 18 18 18 18 18 18 18 18 18 18 18 18 18 18 18
18 18 18 18 18 17 17 17 17 17 17 16 16 16 16 16 16 16 16 17 17 17 17 17 17 17 17 17 18 18 18 18 18 18 18 18 18 18 18 18 18 18 18
18 18 18 18 17 17 17 17 16 16 16 16 16 16 16 16 16 16 16 16 16 16 17 17 17 17 17 17 17 17 17 17 17 18 18 18 18 18 18 18 18 18 18
18 18 18 18 17 17 16 16 16 16 16 16 15 15 15 15 15 15 16 16 16 16 16 16 17 17 17 17 17 17 17 17 17 17 18 18 17 18 18 18 18 18 18
18 18 18 17 17 17 16 16 16 15 15 15 15 15 15 15 15 15 15 15 15 16 16 16 16 16 17 17 17 17 17 17 17 17 18 17 17 17 17 18 18 18 18
18 18 18 17 17 17 16 16 16 15 15 15 15 15 15 15 15 15 15 15 15 15 15 15 16 16 16 16 17 17 17 17 17 17 17 17 17 17 17 18 18 18 18
19 18 18 17 17 17 16 16 16 15 15 15 15 15 15 14 14 15 15 15 15 15 15 15 15 16 16 16 16 16 17 17 17 17 17 17 17 17 17 17 17 17 18
19 18 18 17 17 17 16 16 16 15 15 15 15 15 14 14 14 14 14 14 15 15 15 15 15 15 16 16 16 16 16 17 17 17 17 17 17 17 17 17 17 17 17
19 18 18 18 17 17 16 16 15 15 15 15 15 14 14 14 14 14 14 14 14 14 15 15 15 15 15 15 16 16 16 16 17 17 17 17 17 17 17 17 17 17 17
19 19 18 18 17 17 16 16 15 15 15 15 14 14 14 14 14 14 14 14 14 14 14 14 15 15 15 15 15 16 16 16 16 16 17 17 17 17 17 17 17 17 17
19 19 18 18 17 17 16 16 15 15 15 15 14 14 14 14 14 14 14 14 14 14 14 14 14 15 15 15 15 15 16 16 16 16 16 17 17 17 17 17 17 17 17
19 19 18 18 17 17 16 16 15 15 15 14 14 14 14 14 14 14 14 14 14 14 14 14 14 14 15 15 15 15 15 16 16 16 16 17 17 17 17 17 17 17 17
19 19 18 18 17 17 16 16 15 15 14 14 14 14 14 13 13 13 13 13 13 13 14 14 14 14 14 15 15 15 15 16 16 16 16 16 16 17 17 17 17 17 17
20 19 18 18 17 17 16 16 15 15 14 14 14 14 13 13 13 13 13 13 13 13 13 14 14 14 14 14 15 15 15 15 15 16 16 16 16 16 17 17 17 17 17
20 19 18 18 17 17 16 16 15 15 14 14 14 13 13 13 13 13 13 13 13 13 13 13 14 14 14 14 14 15 15 15 15 15 16 16 16 16 16 16 17 17 17
20 19 19 18 18 17 16 16 15 15 14 14 13 13 13 13 13 13 13 13 13 13 13 13 13 14 14 14 14 14 15 15 15 15 16 16 16 16 16 16 17 17 17
20 19 19 18 18 17 16 16 15 14 14 14 13 13 13 13 13 12 12 12 13 13 13 13 13 13 14 14 14 14 14 15 15 15 15 16 16 16 16 16 16 16 16
20 20 19 19 18 17 16 16 15 14 14 14 13 13 13 13 12 12 12 12 12 12 13 13 13 13 13 14 14 14 14 14 15 15 15 15 15 16 16 16 16 16 16
21 20 19 19 18 17 16 16 15 15 14 14 13 13 13 13 13 12 12 12 12 12 12 13 13 13 13 13 14 14 14 14 14 14 15 15 15 15 16 16 16 16 16
21 20 19 19 18 17 17 16 15 15 14 14 13 13 13 13 13 13 12 12 12 12 12 12 13 13 13 13 13 14 14 14 14 14 14 15 15 15 15 16 16 16 16
20 20 19 19 18 17 17 16 15 15 14 14 14 13 13 13 13 13 13 12 12 12 12 12 13 13 13 13 13 13 14 14 14 14 14 14 15 15 15 15 15 15 16
Wind_Speed
3 3 7 8 8 8 8 8 8 8 8 7 6 6 6 6 6 5 5 4 4 4 4 4 4 4 4 4 4 4 4 4 4 3 3 4 4 4 4 5 5 5 7
5 5 7 8 7 7 7 7 6 6 6 5 5 5 4 4 4 3 3 3 3 3 3 3 2 2 2 2 2 2 3 2 3 2 2 2 2 2 3 4 5 4 6
6 6 7 7 7 6 6 6 5 5 4 4 3 3 2 2 2 2 2 2 1 1 1 1 1 1 1 1 1 1 1 1 2 2 2 2 1 2 3 4 4 5 5
6 6 6 7 6 6 5 5 4 3 3 2 2 2 1 1 0 0 1 1 1 2 2 2 2 2 2 1 1 0 0 1 2 2 2 2 2 2 3 4 4 5 5
6 6 6 7 6 6 5 4 3 3 3 2 1 0 0 1 1 2 2 2 3 3 3 3 3 3 3 2 2 2 1 1 2 3 2 2 2 3 4 5 5 5 5
5 6 6 7 6 5 5 4 3 2 2 1 1 1 2 2 3 3 4 4 4 4 4 4 4 4 4 3 3 2 2 2 2 2 2 2 3 4 5 5 5 5 5
5 5 5 6 6 5 4 3 2 2 1 1 2 3 3 3 4 4 5 5 5 5 5 5 5 5 5 5 4 4 3 3 0 1 2 3 4 5 5 6 6 6 5
6 5 5 6 6 5 4 3 2 1 1 1 3 3 4 4 5 5 5 5 6 6 6 5 5 6 6 6 5 5 5 4 1 1 2 3 5 6 6 6 7 7 6
4 4 3 3 4 4 3 2 1 1 1 2 4 4 5 5 6 6 6 6 6 6 6 6 6 6 7 7 6 6 6 4 2 2 3 3 5 6 7 7 7 7 7
3 2 2 2 2 1 1 2 1 1 2 3 4 5 6 6 7 7 7 7 6 6 6 6 6 7 7 7 7 7 6 4 2 3 3 4 6 7 7 7 7 7 7
3 2 2 2 1 1 2 2 2 3 3 4 5 7 7 6 6 7 8 7 7 6 6 6 7 7 7 6 7 7 4 2 2 3 4 6 7 7 7 7 8 8 8
5 4 3 3 2 2 1 1 2 2 3 4 4 5 5 5 5 5 7 7 7 6 6 5 5 5 4 3 4 4 2 2 3 3 5 7 7 7 7 7 8 8 8
6 4 4 4 2 2 1 0 1 2 3 4 4 4 4 4 5 5 5 6 7 7 5 5 5 3 3 2 2 2 2 2 2 3 5 7 7 7 7 8 8 9 9
5 5 4 4 3 2 1 0 1 1 1 2 3 4 3 2 3 3 3 4 4 4 4 3 2 3 2 2 2 2 2 2 2 3 4 6 6 6 7 8 8 9 9
6 5 4 4 4 3 2 1 1 1 1 2 3 3 2 1 2 2 2 3 3 3 2 2 2 2 2 2 2 1 1 2 2 3 3 4 5 4 5 6 7 8 9
7 5 4 4 4 3 2 2 1 2 2 2 3 3 3 2 1 1 2 2 3 3 2 2 2 2 2 1 1 1 1 1 2 2 2 3 4 3 4 5 6 7 8
6 5 5 5 4 4 3 2 2 2 2 2 2 4 4 3 2 1 2 2 3 4 3 2 2 1 1 1 1 2 1 1 1 1 1 1 2 2 3 5 5 6 7
6 6 5 5 5 4 3 2 2 2 2 2 2 3 4 4 3 2 2 2 3 3 2 1 2 1 2 1 1 2 1 1 1 1 0 0 1 0 1 3 4 5 6
8 7 6 5 6 4 4 3 2 2 2 2 2 3 4 4 4 2 2 2 3 2 2 2 2 1 1 2 1 1 1 1 1 0 0 0 0 0 1 2 2 4 6
7 7 7 6 5 5 4 3 3 2 2 2 2 2 3 4 4 3 2 3 3 2 3 2 2 1 1 1 1 2 2 1 1 1 1 1 1 0 1 2 2 3 5
7 7 7 7 6 4 3 2 2 0 1 1 2 3 3 3 4 3 2 3 3 2 3 2 1 2 2 1 1 2 3 3 3 2 1 1 1 0 2 2 2 2 3
9 8 8 7 7 5 3 2 2 1 1 1 2 2 3 3 4 2 2 2 3 2 3 3 2 1 2 2 1 2 2 3 3 3 2 2 2 1 1 2 2 2 3
9 10 9 8 7 5 4 3 3 3 2 2 2 2 3 3 3 2 2 2 2 2 2 3 1 1 1 2 2 2 2 1 1 2 2 3 3 2 2 1 2 2 2
10 9 8 8 6 5 5 4 4 3 2 3 2 2 3 3 3 3 2 2 2 2 2 2 1 0 1 1 1 2 1 2 2 0 2 2 3 3 2 2 2 2 2
8 8 8 7 6 5 5 5 4 3 2 1 1 2 3 3 3 3 2 2 2 2 2 2 2 1 1 1 1 0 2 2 2 2 1 2 2 2 2 2 2 2 3
7 7 7 8 7 6 6 5 5 5 4 2 2 2 2 3 3 3 2 2 2 2 2 2 2 1 1 1 1 1 1 1 1 2 2 1 1 2 2 3 2 2 3
Wind_Direction
180 190 159 139 132 127 122 118 113 111 109 108 108 110 111 112 112 112 112 112 115 115 111 103 97 102 103 99 95 89 85 79 78 80 90 97 103 109 109 107 103 95 90
156 165 152 142 137 131 125 120 117 114 112 113 111 110 111 114 118 121 120 122 123 127 122 109 102 101 104 98 94 91 85 75 64 60 67 78 107 124 120 118 121 113 99
137 149 149 143 135 126 122 121 121 120 118 112 110 107 103 106 118 135 145 146 151 167 169 149 146 146 148 120 104 89 71 44 28 28 33 19 334 180 151 137 132 122 109
137 138 144 143 134 126 120 117 115 113 111 110 113 108 107 92 104 179 216 213 222 237 235 219 222 224 220 219 216 252 350 350 354 12 19 341 298 211 171 152 145 135 119
131 136 146 143 138 132 125 117 110 101 94 91 93 94 6 315 297 290 280 267 255 251 251 246 249 250 246 236 239 261 286 313 346 17 359 331 304 240 183 169 162 147 136
135 142 154 151 145 135 129 123 116 108 96 67 33 0 334 316 311 302 295 287 277 268 261 257 260 267 271 261 257 268 286 308 3 8 338 307 286 254 196 184 174 159 149
148 151 164 160 152 145 140 136 124 112 86 43 4 348 336 320 306 303 299 293 286 283 276 267 270 275 274 267 269 276 282 296 310 348 326 294 269 255 210 194 187 172 161
156 160 171 171 162 157 152 149 135 107 45 350 339 338 338 330 319 312 301 294 288 283 281 277 273 271 268 265 267 274 281 286 280 306 304 280 263 247 220 205 196 185 172
151 151 166 175 172 174 175 176 164 22 348 336 336 338 335 330 325 319 311 303 294 286 282 279 279 273 266 265 265 270 278 278 255 261 288 275 266 247 225 211 206 193 179
147 166 183 188 179 173 237 270 275 315 341 348 348 346 349 349 343 333 326 315 304 298 291 286 281 275 271 267 265 266 271 273 249 253 276 275 262 247 230 214 204 196 184
195 204 204 200 199 212 247 288 326 336 352 360 1 0 7 3 350 338 331 325 317 309 300 290 287 284 281 278 272 267 267 239 241 256 264 273 265 244 230 215 204 196 189
211 213 202 202 199 205 243 358 357 359 357 3 6 4 2 358 353 349 345 345 341 332 321 309 304 308 310 306 291 281 247 225 237 256 260 271 267 244 226 215 208 200 192
209 209 196 196 185 184 212 20 18 7 3 7 10 7 9 11 3 3 1 357 357 359 359 352 351 347 336 311 289 272 244 234 238 264 276 278 270 247 227 217 211 203 195
198 207 198 182 172 181 179 134 74 47 17 3 2 13 27 18 5 356 358 351 356 359 358 356 345 336 333 320 287 261 250 239 240 261 275 278 274 248 228 221 214 205 199
199 200 191 170 166 159 146 163 119 98 65 28 24 25 40 42 4 353 353 360 353 355 358 344 341 331 323 318 299 264 264 250 235 243 269 289 288 255 230 224 217 214 204
199 192 175 167 162 150 150 148 131 108 91 62 43 29 39 51 29 359 357 354 351 347 341 338 330 322 313 302 302 295 274 266 247 243 263 297 291 267 230 221 221 217 204
191 179 172 172 152 150 149 147 123 118 98 63 40 33 40 42 32 20 7 357 345 346 345 350 344 347 333 321 303 295 290 286 265 255 252 280 284 253 218 215 220 218 207
174 169 178 165 148 149 140 124 114 113 99 63 39 29 30 31 30 28 15 354 347 355 353 343 346 343 336 334 306 305 323 323 282 262 234 238 289 221 182 202 210 212 203
174 168 168 152 151 146 126 107 96 89 76 51 34 28 21 21 23 32 11 347 355 3 357 343 8 347 322 321 298 322 348 352 321 43 23 33 320 158 143 176 193 203 199
168 163 160 150 146 130 108 88 63 53 31 24 19 6 6 11 12 18 9 359 6 9 360 354 355 0 317 313 356 46 19 9 46 46 355 22 1 135 139 144 152 193 193
162 165 165 159 159 145 130 129 124 177 322 338 333 340 352 360 2 13 6 2 6 5 341 338 348 9 359 346 60 40 12 21 43 26 22 45 25 73 111 118 135 154 180
176 177 176 175 172 175 158 148 156 156 210 268 311 334 346 356 353 356 10 1 356 355 357 359 9 15 4 23 88 93 32 8 11 17 20 35 25 32 68 90 114 149 168
186 186 188 183 179 177 153 114 86 62 32 4 336 325 333 345 347 353 353 351 351 1 350 343 351 50 18 11 41 119 134 184 332 353 14 30 28 37 37 61 87 111 150
196 186 184 178 178 177 163 162 157 163 194 231 248 285 315 338 342 342 341 342 345 352 348 331 3 17 101 44 15 32 102 153 145 92 358 12 31 40 34 47 61 73 94
185 179 179 173 180 180 176 175 170 178 202 234 267 298 319 330 330 329 335 338 336 342 347 351 359 29 87 103 91 50 55 53 70 119 88 3 15 17 28 36 61 70 70
175 174 173 176 189 185 182 181 186 192 194 208 245 273 299 310 313 314 323 331 321 333 345 349 2 41 70 88 84 90 113 109 108 114 123 72 28 356 10 25 39 51 58
Height
1514 1515 1517 1518 1519 1520 1521 1522 1522 1523 1524 1524 1525 1525 1525 1526 1526 1526 1526 1526 1526 1526 1526 1526 1526 1526 1526 1526 1525 1525 1525 1525 1525 1524 1524 1524 1524 1524 1524 1524 1523 1523 1523
1515 1516 1517 1518 1520 1521 1521 1522 1523 1523 1524 1524 1524 1525 1525 1525 1526 1526 1526 1526 1526 1526 1526 1526 1526 1526 1526 1526 1526 1525 1525 1525 1525 1525 1525 1525 1525 1525 1525 1525 1524 1524 1524
1516 1517 1518 1519 1520 1521 1521 1522 1523 1523 1523 1524 1524 1525 1525 1525 1525 1525 1525 1526 1526 1526 1526 1526 1526 1526 1526 1526 1526 1526 1525 1525 1525 1525 1525 1525 1525 1525 1525 1525 1525 1525 1525
1517 1518 1519 1520 1521 1521 1522 1522 1522 1523 1523 1523 1524 1524 1524 1524 1524 1524 1525 1525 1525 1525 1525 1525 1526 1526 1526 1526 1526 1526 1526 1526 1525 1525 1525 1525 1525 1525 1526 1525 1526 1526 1526
1518 1519 1520 1520 1521 1521 1522 1522 1522 1522 1523 1523 1523 1523 1523 1523 1523 1523 1523 1524 1524 1524 1524 1524 1525 1525 1525 1525 1525 1525 1525 1525 1525 1525 1525 1525 1525 1526 1526 1526 1526 1526 1526
1519 1520 1520 1521 1521 1522 1522 1521 1522 1522 1522 1522 1522 1522 1522 1522 1522 1522 1522 1522 1522 1523 1523 1523 1524 1524 1524 1525 1525 1525 1525 1525 1525 1525 1525 1525 1525 1526 1526 1526 1526 1527 1527
1519 1520 1521 1521 1521 1522 1521 1521 1521 1521 1521 1521 1521 1520 1520 1520 1520 1520 1520 1520 1521 1521 1521 1521 1521 1522 1523 1523 1523 1524 1524 1524 1525 1525 1525 1525 1525 1526 1526 1526 1527 1527 1528
1520 1521 1522 1522 1522 1522 1522 1521 1521 1521 1520 1520 1520 1519 1519 1519 1519 1519 1519 1519 1519 1519 1519 1520 1520 1520 1521 1521 1522 1523 1523 1523 1524 1524 1524 1525 1525 1525 1526 1526 1527 1527 1528
1521 1522 1522 1522 1522 1522 1522 1522 1521 1521 1520 1520 1519 1519 1518 1518 1518 1517 1517 1517 1517 1517 1517 1518 1518 1518 1519 1519 1520 1521 1521 1522 1522 1523 1523 1524 1525 1525 1525 1526 1527 1527 1528
1522 1522 1522 1522 1522 1522 1522 1522 1521 1521 1520 1519 1519 1518 1518 1517 1517 1516 1516 1516 1516 1516 1516 1516 1516 1516 1517 1517 1518 1519 1520 1520 1521 1522 1522 1523 1524 1524 1525 1525 1526 1527 1528
1522 1522 1522 1523 1522 1522 1522 1522 1521 1521 1520 1519 1519 1518 1517 1517 1516 1516 1515 1515 1514 1514 1514 1514 1514 1514 1515 1515 1516 1517 1518 1518 1519 1520 1521 1522 1523 1524 1524 1525 1526 1527 1528
1521 1522 1522 1522 1522 1522 1522 1521 1521 1521 1520 1519 1519 1518 1517 1516 1516 1515 1514 1514 1513 1513 1513 1513 1513 1512 1513 1513 1514 1514 1515 1516 1517 1518 1519 1521 1522 1523 1523 1524 1525 1526 1527
1521 1521 1522 1522 1522 1522 1522 1521 1521 1520 1520 1519 1518 1517 1517 1516 1515 1514 1513 1513 1512 1512 1511 1511 1511 1511 1511 1511 1512 1512 1513 1514 1515 1517 1518 1519 1520 1521 1522 1523 1524 1525 1527
1520 1521 1521 1522 1522 1522 1521 1521 1520 1520 1519 1519 1518 1517 1516 1515 1514 1513 1512 1511 1511 1510 1510 1510 1509 1509 1509 1509 1510 1510 1511 1512 1513 1515 1516 1518 1519 1520 1521 1522 1523 1525 1526
1519 1520 1521 1521 1521 1521 1521 1520 1520 1519 1519 1518 1517 1516 1515 1514 1513 1512 1511 1510 1510 1509 1508 1508 1508 1508 1507 1508 1508 1509 1509 1511 1512 1513 1515 1516 1517 1519 1520 1521 1522 1524 1525
1519 1520 1521 1521 1521 1521 1521 1520 1519 1519 1518 1518 1517 1516 1515 1514 1512 1511 1510 1509 1509 1508 1507 1507 1506 1506 1506 1506 1506 1507 1508 1509 1510 1511 1513 1514 1516 1517 1518 1519 1521 1523 1524
1518 1520 1520 1521 1521 1521 1520 1520 1519 1519 1518 1517 1516 1515 1514 1513 1512 1510 1509 1508 1507 1507 1506 1505 1505 1504 1504 1505 1505 1506 1506 1507 1509 1510 1511 1512 1514 1516 1517 1518 1520 1522 1523
1518 1519 1520 1520 1520 1520 1520 1519 1519 1518 1518 1517 1516 1515 1513 1512 1511 1510 1508 1507 1506 1505 1505 1504 1503 1503 1503 1503 1503 1504 1505 1506 1507 1508 1509 1511 1512 1514 1516 1517 1519 1521 1522
1517 1518 1519 1520 1520 1520 1520 1519 1519 1518 1517 1517 1516 1514 1513 1512 1510 1509 1508 1507 1506 1505 1503 1503 1502 1502 1502 1502 1502 1502 1503 1504 1505 1506 1508 1509 1511 1512 1514 1516 1518 1520 1522
1516 1517 1518 1519 1519 1519 1519 1519 1518 1518 1517 1516 1515 1514 1513 1512 1510 1509 1508 1507 1505 1504 1503 1502 1501 1501 1501 1501 1501 1501 1502 1503 1504 1505 1506 1508 1509 1511 1513 1515 1517 1519 1520
1514 1516 1517 1518 1519 1519 1518 1518 1517 1517 1517 1516 1515 1514 1513 1512 1510 1509 1508 1506 1505 1503 1502 1501 1501 1500 1500 1500 1501 1501 1502 1502 1503 1504 1505 1507 1508 1510 1512 1514 1516 1518 1519
1512 1514 1516 1517 1518 1518 1518 1518 1517 1517 1516 1516 1515 1514 1513 1511 1510 1509 1508 1506 1505 1503 1502 1501 1500 1500 1500 1500 1500 1501 1501 1503 1503 1503 1504 1506 1507 1509 1511 1512 1514 1516 1518
1510 1512 1514 1516 1517 1517 1517 1517 1516 1516 1515 1515 1515 1514 1513 1511 1510 1509 1508 1507 1505 1504 1502 1501 1500 1500 1500 1500 1500 1501 1501 1501 1502 1503 1504 1505 1506 1508 1509 1511 1513 1515 1517
1508 1511 1513 1515 1516 1516 1516 1516 1516 1515 1515 1515 1514 1513 1513 1512 1510 1509 1508 1507 1506 1504 1502 1501 1501 1500 1500 1500 1500 1500 1501 1501 1502 1503 1504 1504 1506 1507 1509 1510 1512 1514 1516
1506 1509 1511 1513 1514 1515 1515 1515 1515 1515 1515 1514 1514 1513 1512 1512 1511 1509 1508 1507 1506 1504 1503 1502 1501 1500 1500 1500 1500 1500 1500 1501 1501 1502 1503 1504 1505 1507 1508 1509 1511 1513 1515
1505 1507 1509 1511 1513 1514 1514 1514 1514 1514 1514 1513 1513 1513 1512 1511 1511 1510 1509 1507 1506 1505 1504 1502 1502 1501 1501 1500 1500 1500 1500 1500 1501 1501 1502 1503 1504 1506 1507 1509 1511 1512 1514